Shungnak AP, Shungnak, AK, AK

10:04 AM AKST on December 08, 2019 (GMT -0900)
Shungnak AP, Shungnak, AK

Weather History for PAGH - October, 2019

Change the Weather History Date:

Saturday, October 26, 2019

  Actual Average (WUND) Record (WUND)
Temperature  
Mean Temperature 22 °F -  
Max Temperature 28 °F - - (-1)
Min Temperature 16 °F - - (-1)
Degree Days  
Heating Degree Days 43    
Moisture  
Dew Point 20 °F    
Average Humidity 87    
Maximum Humidity 100    
Minimum Humidity 68    
Precipitation  
Precipitation 0.00 in - - ()
Sea Level Pressure  
Sea Level Pressure 30.32 in    
Wind  
Wind Speed 19 mph (ESE)    
Max Wind Speed 26 mph    
Max Gust Speed 38 mph    
Visibility 5 miles    
Events Snow    
Averages and records for this station are not official NWS values.
T = Trace of Precipitation, MM = Missing Value Source: NWS Daily Summary

Daily Weather History Graph

Daily Weather History Graph

Search for Another Location

Airport or City:

Astronomy

Oct. 26, 2019 Rise Set
Actual Time 10:07 AM AKDT 6:15 PM AKDT
Civil Twilight 9:09 AM AKDT 7:13 PM AKDT
Nautical Twilight 8:07 AM AKDT 8:16 PM AKDT
Astronomical Twilight 7:05 AM AKDT 9:17 PM AKDT
Moon 7:00 AM AKDT (10/26) 6:57 PM AKDT (10/26)
Length of Visible Light 10h 04m
Length of Day
8h 07m
Waning Crescent, 3% of the Moon is Illuminated
Oct 26
Waning Crescent
Oct 27
New
Nov 4
First Quarter
Nov 12
Full
Nov 19
Last Quarter

Hourly Weather History & Observations

Time (AKDT) Temp. Windchill Dew Point Humidity Pressure Visibility Wind Dir Wind Speed Gust Speed Precip Events Conditions
12:56 AM 16.0 °F 1.7 °F 10.9 °F 81% 30.45 in 10.0 mi ESE 13.8 mph - N/A   Mostly Cloudy
1:56 AM 17.1 °F 2.5 °F 10.0 °F 74% 30.45 in 10.0 mi ESE 15.0 mph - N/A   Mostly Cloudy
2:56 AM 18.0 °F 4.2 °F 10.0 °F 71% 30.44 in 10.0 mi East 13.8 mph - N/A   Overcast
3:56 AM 18.0 °F 3.6 °F 10.0 °F 71% 30.44 in 10.0 mi East 15.0 mph - N/A   Overcast
4:56 AM 19.0 °F 5.0 °F 10.9 °F 71% 30.43 in 10.0 mi East 15.0 mph - N/A   Overcast
5:56 AM 19.0 °F 3.2 °F 10.9 °F 71% 30.44 in 10.0 mi East 19.6 mph 24.2 mph N/A   Overcast
6:56 AM 19.9 °F 4.8 °F 10.9 °F 68% 30.45 in 10.0 mi East 18.4 mph 27.6 mph N/A   Overcast
7:56 AM 19.9 °F 3.5 °F 12.9 °F 74% 30.43 in 9.0 mi East 21.9 mph 26.5 mph 0.00 in Snow Light Snow
8:56 AM 19.9 °F 6.2 °F 15.1 °F 81% 30.44 in 10.0 mi East 15.0 mph - 0.00 in Snow Light Snow
9:56 AM 19.9 °F 3.5 °F 15.1 °F 81% 30.43 in 10.0 mi East 21.9 mph 27.6 mph 0.00 in   Overcast
10:56 AM 19.9 °F 3.9 °F 16.0 °F 85% 30.43 in 6.0 mi East 20.7 mph 27.6 mph 0.00 in Snow Light Snow
11:56 AM 21.0 °F 5.0 °F 18.0 °F 88% 30.42 in 4.0 mi East 21.9 mph 31.1 mph 0.00 in Snow Light Snow
12:45 PM 21.2 °F 4.5 °F 19.4 °F 93% 30.39 in 3.0 mi ESE 24.2 mph 32.2 mph 0.00 in Snow Light Snow
12:56 PM 23.0 °F 7.6 °F 19.0 °F 85% 30.41 in 4.0 mi East 21.9 mph 31.1 mph 0.00 in Snow Light Snow
1:56 PM 23.0 °F 8.3 °F 19.9 °F 88% 30.40 in 9.0 mi East 19.6 mph 32.2 mph 0.00 in Snow Light Snow
6:54 PM 26.6 °F 11.7 °F 23.0 °F 86% 30.29 in 2.5 mi East 24.2 mph 35.7 mph 0.00 in Snow Light Snow
6:56 PM 26.1 °F 11.3 °F 23.0 °F 88% 30.32 in 2.5 mi East 23.0 mph 35.7 mph 0.00 in Snow Light Snow
7:36 PM 26.6 °F 12.0 °F 23.0 °F 86% 30.28 in 3.0 mi East 23.0 mph 29.9 mph 0.00 in Snow Light Snow
7:52 PM 26.6 °F 12.0 °F 24.8 °F 93% 30.27 in 2.5 mi East 23.0 mph 35.7 mph 0.00 in Snow Light Snow
7:56 PM 26.1 °F 10.7 °F 24.1 °F 92% 30.30 in 2.5 mi ESE 25.3 mph 35.7 mph 0.00 in Snow Light Snow
8:08 PM 26.6 °F 11.4 °F 24.8 °F 93% 30.27 in 3.0 mi ESE 25.3 mph 32.2 mph 0.00 in Snow Light Snow
8:56 PM 27.0 °F 12.2 °F 24.1 °F 89% 30.28 in 3.0 mi ESE 24.2 mph 32.2 mph 0.00 in Snow Light Snow
9:19 PM 26.6 °F 12.4 °F 24.8 °F 93% 30.25 in 4.0 mi ESE 21.9 mph 26.5 mph 0.00 in Snow Light Snow
9:56 PM 27.0 °F 12.8 °F 25.0 °F 92% 30.26 in 4.0 mi East 21.9 mph 27.6 mph 0.00 in Snow Light Snow
10:11 PM 26.6 °F 12.0 °F 24.8 °F 93% 30.23 in 2.0 mi East 23.0 mph 31.1 mph 0.00 in Snow Light Snow
10:18 PM 26.6 °F 11.7 °F 24.8 °F 93% 30.22 in 1.8 mi East 24.2 mph 31.1 mph 0.00 in Snow Light Snow
10:26 PM 26.6 °F 11.7 °F 26.6 °F 100% 30.22 in 1.8 mi East 24.2 mph 36.8 mph 0.00 in Snow Light Snow
10:37 PM 26.6 °F 12.7 °F 26.6 °F 100% 30.22 in 2.0 mi East 20.7 mph 34.5 mph 0.00 in Snow Light Snow
10:56 PM 28.0 °F 13.0 °F 26.1 °F 92% 30.24 in 2.5 mi ESE 26.5 mph 31.1 mph 0.00 in Snow Light Snow
11:03 PM 28.4 °F 13.8 °F 26.6 °F 93% 30.21 in 2.5 mi ESE 25.3 mph 34.5 mph 0.00 in Snow Light Snow
11:13 PM 28.4 °F 14.1 °F 26.6 °F 93% 30.21 in 2.0 mi East 24.2 mph 35.7 mph 0.00 in Snow Light Snow
11:20 PM 28.4 °F 14.7 °F 26.6 °F 93% 30.20 in 1.8 mi East 21.9 mph 33.4 mph 0.00 in Snow Light Snow
11:39 PM 28.4 °F 14.4 °F 26.6 °F 93% 30.20 in 1.8 mi East 23.0 mph 35.7 mph 0.00 in Snow Light Snow
11:48 PM 28.4 °F 14.1 °F 26.6 °F 93% 30.20 in 2.5 mi East 24.2 mph 31.1 mph 0.00 in Snow Light Snow
11:56 PM 28.0 °F 13.3 °F 26.1 °F 92% 30.22 in 3.0 mi East 25.3 mph 38.0 mph 0.00 in Snow Light Snow